Location: Ladrillo (historical)
(32.8195°N, 117.2231°W)
Time: 03:48:10
(UTC+00:00)

Meteor 2-5 Rocket - Pass Details

Date: 29 October 2020
Orbit: 834 x 911 km, 81.2° (Epoch: 26 November)

Event Time Altitude Azimuth Distance (km) Brightness Sun altitude
Rises 12:42:51 0° 210° (SSW) 3,409 6.6 -17.7°
Reaches altitude 10° 12:45:27 10° 219° (SW) 2,488 5.8 -17.2°
Maximum altitude 12:50:34 35° 284° (WNW) 1,385 4.3 -16.1°
Drops below altitude 10° 12:55:49 10° 348° (NNW) 2,549 6.0 -15.0°
Sets 12:58:31 0° 358° (N) 3,504 6.8 -14.4°
